Other Surface Observations
Issued by NWS Tucson, AZ

Home | Current Version | Previous Version | Text Only | Print | Product List | Glossary On
Versions: 1 2 3 4 5 6 7 8 9 10 11 12 13 14 15 16 17 18 19 20 21 22 23 24 25 26 27 28 29 30 31 32 33 34 35 36 37 38 39 40 41 42 43 44 45 46 47 48 49 50
547
SXUS55 KTWC 061415
OSOTWC

WEATHER ROUNDUP FOR SOUTHEAST ARIZONA
NATIONAL WEATHER SERVICE TUCSON AZ
715 AM MST SAT FEB 06 2016

AZZ504>506-514-061515-
LOCATION       SKY/WX    TMP DP  RH WIND       PRES   REMARKS
TUCSON         PTCLDY    48  11  22 SE13      30.33R
DAVIS-MONTHAN  PTCLDY    44  12  27 SE10      30.31R
CHILDRENS PARK N/A      N/A N/A  59 NE2               PIMA CO DEQ
ALVERNON/22ND  N/A       44 N/A N/A SE5               PIMA CO DEQ
CHERRY/GLENN   N/A       35 N/A N/A N1                PIMA CO DEQ
TANGERINE      N/A       36 N/A N/A NE4               PIMA CO DEQ
CONTL RANCH    N/A       39  19  44 SE5               PIMA CO DEQ
GRANT/1ST      N/A       37  21  52 NE1               PIMA CO DEQ
CRAYCROFT/22ND N/A       41  14  33 SW4               PIMA CO DEQ
GOLFLINKS/KOLB N/A       41  14  33 SE4               PIMA CO DEQ
AJO/12TH       N/A       48  12  23 SE10              PIMA CO DEQ
SAGUARO EAST   N/A        9 -19  24 S3                PIMA CO DEQ
FAIRGROUNDS    N/A       46 N/A N/A SE18              PIMA CO DEQ
SAGUARO        N/A       37  12  35 NW4               *SABINO CYN
SAN CARLOS     N/A       36  12  37 NE2               *SAN CARLOS
GREEN VALLEY   N/A       31  17  55 SW3               PIMA CO DEQ
HORSE CAMP CYN N/A       38   9  30 E14G20            *ARAVAIPA CYN
RINCON MTNS    N/A       41 -29   4 E9G15             *NR MANNING CAMP
$$

AZZ509>511-061515-
LOCATION       SKY/WX    TMP DP  RH WIND       PRES   REMARKS
SAFFORD        PTCLDY    33  12  41 CALM      30.42R
STRAY HORSE    N/A       27 -16  14 E3                *
TRAIL CABIN    N/A       28   3  33 SE6G10            *N OF GRANVILLE
BLACK HILLS    N/A       30  14  50 CALM              *N OF FT THOMAS
DRY LAKE       N/A       27   0  30 E7G11             *NATANES MTNS
NOON CREEK     N/A       33   8  34 SW6G10            *PINALENO MTNS
COLUMBINE      N/A       18  -5  35 CALM              *PINALENO MTNS
GUTHRIE        N/A       32   2  27 NE13G17           *SW OF GUTHRIE
$$

AZZ502-503-513-061515-
LOCATION       SKY/WX    TMP DP  RH WIND       PRES   REMARKS
NOGALES        CLEAR     35  10  35 NE8       30.33R WCI  29
SELLS          N/A       37  13  36 SW7G11            *
SASABE         N/A       27  17  66 SW6               *ALTAR VLY
HOPKINS        N/A       46 -25   4 E8G14             *SANTA RITA MTNS
CARR CYN       N/A       30  10  43 SW2               *W OF HEREFORD
$$

AZZ507-508-512-061515-
LOCATION       SKY/WX    TMP DP  RH WIND       PRES   REMARKS
SIERRA VISTA   PTCLDY    31  13  47 SE7       30.38R WCI  24
DOUGLAS        PTCLDY    23  12  62 N9        30.39R WCI  13
EMPIRE MTNS    N/A       38   6  26 S8G17             *LAS CIENEGAS NCA
MULESHOE RANCH N/A       45   3  17 E13G24            *PRESERVE
HEADQUARTERS   N/A       38  -3  17 NE8G23            *CHIRICAHUA MTNS
$$

.............................NOTES.............................
THIS IS AN AUTOMATED COLLECTIVE WITH MINIMAL QUALITY CONTROL.
PIMA CO DEQ SITES HAVE NONSTANDARD WIND SENSOR HEIGHTS.
PIMA CO DEQ SITES DO NOT REPORT WIND GUSTS.
* INDICATES WIND SENSORS LOCATED AT 20 FEET INSTEAD OF 33 FEET.
..............................KEY..............................
SKY/WX - SKY CONDITION/WEATHER
TMP    - TEMPERATURE IN FAHRENHEIT
DP     - DEWPOINT IN FAHRENHEIT
RH     - RELATIVE HUMIDITY IN PERCENT
WIND   - DIRECTION AND SPEED IN MILES PER HOUR (MPH)
VRB    - VARIABLE WIND DIRECTION
PRES   - MEAN SEA LEVEL PRESSURE IN INCHES OF MERCURY
         F - FALLING PRESSURE   R - RISING PRESSURE
         S - STEADY PRESSURE
VSB    - VISIBILITY IN MILES
HX     - HEAT INDEX IN FAHRENHEIT
WCI    - WIND CHILL INDEX IN FAHRENHEIT
N/A    - NOT AVAILABLE
AFB    - AIR FORCE BASE
         DAVIS-MONTHAN IS DAVIS-MONTHAN AIR FORCE BASE
CYN    - CANYON
MTNS   - MOUNTAINS
NCA    - NATIONAL CONSERVATION AREA
NR     - NEAR
VLY    - VALLEY
CONTL  - CONTINENTAL
PIMA CO DEQ - PIMA COUNTY DEPT OF ENVIRONMENTAL QUALITY



USA.gov is the U.S. government's official web portal to all federal, state and local government web resources and services.